ROMMA est une association bénévole à but non lucratif. Votre soutien est indispensable : ADHERER à ROMMA ou FAIRE un DON

Arâches-la-Frasse - (74, Haute-Savoie)

Domaine du Grand Massif (1120 m)   Longitude: 06° 38' 33" E   Latitude: 46° 02' 45" N Station partenaire n°39
 

Détail journalier du     <<     >>

Température Humidité Vent Dir Rafale Dir. rafale Ensol.
Heure (°C) (%) (km/h) (km/h) (min)
01:00 12.8785ENE10E0
02:00 12.4785E10E0
03:00 11.9824E10E0
04:00 11.5845E13ESE0
05:00 11.2856E11E0
06:00 11.6835E13ENE0
07:00 12.0806E13ESE0
08:00 11.8805E13E0
09:00 12.2764ENE10NE0
10:00 13.8732ENE11NE0
11:00 16.3712NE8E60
12:00 18.1652NE8NE60
13:00 19.0601OSO8NNO30
14:00 20.4563O13N60
15:00 20.8593OSO11OSO60
16:00 21.6572SSO10SO60
17:00 21.5612OSO8O60
18:00 20.7562O6O60
19:00 16.9684ESE13ESE0
20:00 15.3726E13ESE0
21:00 14.6756E15ESE0
22:00 15.0716E13E0
23:00 14.4724ESE11ESE0
minuit 14.1746ESE13ESE0

Graphique du 13-10-2019

 

Serveur OMMA